• In Portugal
  • List of Countries
  • For 7 days
  • Water Temperature
  • Satellite Maps
  • Weather Map
  • Weather Widgets
  • user-avatar
    Login

    Hourly Weather Kranevo

    Today, 25 September, Tuesday

    Time Temperature Precipitation Wind Pressure Humidity
    00:00 +13°C° 0.5 mm 9 mps 759 mmHg 71%
    01:00 +13°C° 0.5 mm 8 mps 759 mmHg 74%
    02:00 +12°C° 0.5 mm 8 mps 760 mmHg 77%
    03:00 +12°C° 0.6 mm 7 mps 760 mmHg 75%
    04:00 +11°C° 0.6 mm 6 mps 761 mmHg 74%
    05:00 +11°C° 0.6 mm 6 mps 761 mmHg 72%
    06:00 +12°C° 0.1 mm 5 mps 762 mmHg 71%
    07:00 +13°C° 0.1 mm 5 mps 762 mmHg 70%
    08:00 +13°C° 0.1 mm 5 mps 763 mmHg 68%
    09:00 +14°C° 0 mm 5 mps 763 mmHg 62%
    10:00 +14°C° 0 mm 5 mps 763 mmHg 55%
    11:00 +15°C° 0 mm 5 mps 764 mmHg 49%
    12:00 +15°C° 0 mm 6 mps 764 mmHg 46%
    13:00 +16°C° 0 mm 6 mps 764 mmHg 43%
    14:00 +16°C° 0 mm 6 mps 764 mmHg 40%
    15:00 +16°C° 0 mm 6 mps 764 mmHg 39%
    16:00 +16°C° 0 mm 5 mps 764 mmHg 39%
    17:00 +15°C° 0 mm 5 mps 764 mmHg 38%
    18:00 +15°C° 0 mm 5 mps 765 mmHg 39%
    19:00 +14°C° 0 mm 4 mps 765 mmHg 41%
    20:00 +13°C° 0 mm 4 mps 766 mmHg 42%
    21:00 +12°C° 0 mm 5 mps 766 mmHg 43%
    22:00 +11°C° 0 mm 6 mps 767 mmHg 44%
    23:00 +11°C° 0 mm 6 mps 767 mmHg 45%

    Tomorrow, 26 September, Wednesday

    Time Temperature Precipitation Wind Pressure Humidity
    00:00 +10°C° 0 mm 6 mps 767 mmHg 46%
    01:00 +10°C° 0 mm 7 mps 768 mmHg 48%
    02:00 +9°C° 0 mm 7 mps 768 mmHg 49%
    03:00 +9°C° 0 mm 7 mps 768 mmHg 52%
    04:00 +8°C° 0 mm 7 mps 768 mmHg 56%
    05:00 +8°C° 0 mm 7 mps 768 mmHg 59%
    06:00 +7°C° 0 mm 8 mps 769 mmHg 57%
    07:00 +9°C° 0 mm 8 mps 769 mmHg 55%
    08:00 +10°C° 0 mm 9 mps 769 mmHg 54%
    09:00 +11°C° 0 mm 9 mps 769 mmHg 49%
    10:00 +12°C° 0 mm 9 mps 769 mmHg 44%
    11:00 +15°C° 0 mm 9 mps 769 mmHg 39%
    12:00 +15°C° 0 mm 9 mps 769 mmHg 37%
    13:00 +16°C° 0 mm 9 mps 769 mmHg 36%
    14:00 +16°C° 0 mm 9 mps 769 mmHg 34%
    15:00 +16°C° 0 mm 9 mps 768 mmHg 34%
    16:00 +15°C° 0 mm 8 mps 768 mmHg 34%
    17:00 +15°C° 0 mm 8 mps 768 mmHg 34%
    18:00 +13°C° 0 mm 8 mps 768 mmHg 37%
    19:00 +12°C° 0 mm 8 mps 769 mmHg 39%
    20:00 +11°C° 0 mm 8 mps 769 mmHg 42%
    21:00 +10°C° 0 mm 7 mps 769 mmHg 43%
    22:00 +10°C° 0 mm 7 mps 769 mmHg 43%
    23:00 +9°C° 0 mm 7 mps 769 mmHg 44%

    Day after tomorrow, 27 September, Thursday

    Time Temperature Precipitation Wind Pressure Humidity
    00:00 +9°C° 0 mm 7 mps 769 mmHg 45%
    01:00 +8°C° 0 mm 7 mps 769 mmHg 46%
    02:00 +8°C° 0 mm 7 mps 769 mmHg 47%
    03:00 +6°C° 0 mm 7 mps 769 mmHg 48%
    04:00 +6°C° 0 mm 7 mps 768 mmHg 50%
    05:00 +6°C° 0 mm 7 mps 768 mmHg 51%
    06:00 +6°C° 0 mm 7 mps 768 mmHg 49%
    07:00 +8°C° 0 mm 7 mps 768 mmHg 47%
    08:00 +9°C° 0 mm 7 mps 768 mmHg 44%
    09:00 +11°C° 0 mm 7 mps 768 mmHg 43%
    10:00 +14°C° 0 mm 7 mps 768 mmHg 41%
    11:00 +15°C° 0 mm 7 mps 768 mmHg 39%
    12:00 +16°C° 0 mm 7 mps 767 mmHg 38%
    13:00 +17°C° 0 mm 7 mps 767 mmHg 37%
    14:00 +18°C° 0 mm 7 mps 766 mmHg 37%
    15:00 +17°C° 0 mm 6 mps 766 mmHg 38%
    16:00 +17°C° 0 mm 6 mps 765 mmHg 39%
    17:00 +16°C° 0 mm 6 mps 765 mmHg 39%
    18:00 +15°C° 0 mm 5 mps 765 mmHg 45%
    19:00 +14°C° 0 mm 5 mps 765 mmHg 50%
    20:00 +12°C° 0 mm 5 mps 765 mmHg 55%
    21:00 +12°C° 0 mm 5 mps 765 mmHg 57%
    22:00 +12°C° 0 mm 4 mps 765 mmHg 59%
    23:00 +11°C° 0 mm 4 mps 765 mmHg 61%

    28 September, Friday

    Time Temperature Precipitation Wind Pressure Humidity
    00:00 +11°C° 0 mm 4 mps 764 mmHg 60%
    01:00 +11°C° 0 mm 4 mps 764 mmHg 60%
    02:00 +11°C° 0 mm 4 mps 764 mmHg 59%
    03:00 +10°C° 0 mm 5 mps 763 mmHg 58%
    04:00 +9°C° 0 mm 5 mps 763 mmHg 56%
    05:00 +9°C° 0 mm 5 mps 763 mmHg 55%
    06:00 +10°C° 0 mm 5 mps 763 mmHg 51%
    07:00 +13°C° 0 mm 4 mps 763 mmHg 46%
    08:00 +14°C° 0 mm 4 mps 763 mmHg 42%
    09:00 +17°C° 0 mm 4 mps 762 mmHg 41%
    10:00 +17°C° 0 mm 5 mps 762 mmHg 41%
    11:00 +20°C° 0 mm 5 mps 762 mmHg 40%
    12:00 +21°C° 0 mm 5 mps 762 mmHg 39%
    13:00 +21°C° 0 mm 4 mps 761 mmHg 39%
    14:00 +22°C° 0 mm 4 mps 761 mmHg 38%
    15:00 +21°C° 0 mm 4 mps 760 mmHg 41%
    16:00 +21°C° 0 mm 4 mps 760 mmHg 44%
    17:00 +20°C° 0 mm 4 mps 759 mmHg 48%
    18:00 +19°C° 0 mm 3 mps 759 mmHg 53%
    19:00 +18°C° 0 mm 3 mps 759 mmHg 59%
    20:00 +16°C° 0 mm 3 mps 759 mmHg 65%
    21:00 +16°C° 0 mm 2 mps 759 mmHg 66%
    22:00 +16°C° 0 mm 2 mps 759 mmHg 68%
    23:00 +15°C° 0 mm 2 mps 758 mmHg 70%

    29 September, Saturday

    Time Temperature Precipitation Wind Pressure Humidity
    00:00 +15°C° 0 mm 2 mps 758 mmHg 71%
    01:00 +15°C° 0 mm 2 mps 758 mmHg 71%
    02:00 +15°C° 0 mm 2 mps 758 mmHg 72%
    03:00 +15°C° 0 mm 2 mps 758 mmHg 72%
    04:00 +14°C° 0 mm 1 mps 758 mmHg 73%
    05:00 +14°C° 0 mm 1 mps 757 mmHg 73%
    06:00 +15°C° 0 mm 2 mps 757 mmHg 70%
    07:00 +16°C° 0 mm 2 mps 757 mmHg 66%
    08:00 +17°C° 0 mm 2 mps 757 mmHg 63%
    09:00 +18°C° 0 mm 2 mps 757 mmHg 58%
    10:00 +20°C° 0 mm 2 mps 757 mmHg 53%
    11:00 +23°C° 0 mm 2 mps 757 mmHg 48%
    12:00 +23°C° 0 mm 2 mps 757 mmHg 46%
    13:00 +23°C° 0 mm 2 mps 757 mmHg 45%
    14:00 +24°C° 0 mm 2 mps 757 mmHg 43%
    15:00 +23°C° 0 mm 2 mps 757 mmHg 45%
    16:00 +23°C° 0 mm 2 mps 757 mmHg 46%
    17:00 +23°C° 0 mm 2 mps 757 mmHg 47%
    18:00 +21°C° 0 mm 2 mps 757 mmHg 53%
    19:00 +19°C° 0 mm 2 mps 758 mmHg 59%
    20:00 +18°C° 0 mm 2 mps 758 mmHg 65%
    21:00 +18°C° 0 mm 2 mps 758 mmHg 67%
    22:00 +17°C° 0 mm 2 mps 758 mmHg 70%
    23:00 +17°C° 0 mm 2 mps 759 mmHg 72%

    30 September, Sunday

    Time Temperature Precipitation Wind Pressure Humidity
    00:00 +16°C° 0 mm 3 mps 759 mmHg 74%
    01:00 +15°C° 0 mm 4 mps 759 mmHg 76%
    02:00 +14°C° 0 mm 5 mps 759 mmHg 77%
    03:00 +14°C° 0 mm 5 mps 759 mmHg 81%
    04:00 +13°C° 0 mm 6 mps 759 mmHg 85%
    05:00 +13°C° 0 mm 6 mps 760 mmHg 89%
    06:00 +14°C° 0 mm 6 mps 760 mmHg 87%
    07:00 +14°C° 0 mm 6 mps 760 mmHg 84%
    08:00 +15°C° 0 mm 7 mps 761 mmHg 81%
    09:00 +16°C° 0.1 mm 7 mps 761 mmHg 74%
    10:00 +18°C° 0.1 mm 7 mps 761 mmHg 68%
    11:00 +20°C° 0.1 mm 7 mps 761 mmHg 61%
    12:00 +21°C° 0.1 mm 7 mps 761 mmHg 58%
    13:00 +22°C° 0.1 mm 7 mps 760 mmHg 54%
    14:00 +22°C° 0.1 mm 7 mps 760 mmHg 51%
    15:00 +22°C° 0 mm 7 mps 760 mmHg 51%
    16:00 +21°C° 0 mm 6 mps 760 mmHg 52%
    17:00 +21°C° 0 mm 6 mps 760 mmHg 53%
    18:00 +19°C° 0 mm 6 mps 761 mmHg 59%
    19:00 +17°C° 0 mm 5 mps 761 mmHg 64%
    20:00 +16°C° 0 mm 5 mps 761 mmHg 70%
    21:00 +15°C° 0 mm 4 mps 761 mmHg 71%
    22:00 +15°C° 0 mm 4 mps 761 mmHg 73%
    23:00 +15°C° 0 mm 4 mps 761 mmHg 75%
    Show more